Terminal Aerodrome Forecast
Issued by NWS

Home | Current Version | Previous Version | Text Only | Print | Product List | Glossary On
Versions: 1 2 3 4 5 6 7 8 9 10 11 12 13 14 15 16 17 18 19 20 21 22 23
000
FTUS46 KSEW 260523
TAFSEA
TAF
KSEA 260523Z 2606/2712 36008KT P6SM SKC
     FM260700 02005KT P6SM SKC
     FM261300 20004KT P6SM SCT010
      TEMPO 2614/2617 BKN010
     FM261800 23006KT P6SM SKC=

USA.gov is the U.S. government's official web portal to all federal, state and local government web resources and services.